sat.trackr.live / text

‹ back to catalog

SPHEREX (MIDEX 9)

NORAD 63182 · 2025-047E

PAYLOAD ACTIVE UNKNOWN

§ Identity

Operator
Country
US
Launch date
2025-03-12
Launch site
AFWTR
Launch vehicle
Mass (kg)
RCS (m²)

External: N2YO · Heavens-Above · Gunter

§ Orbital elements

Epoch: 2026-09-22T12:31:02.923104Z

Period
97.68 min
Inclination
97.9597°
Eccentricity
0.0009153
Mean motion
14.74216715 rev/d
Perigee alt
641.2 km
Apogee alt
654.1 km
Semi-major
7,025.8 km
B*
1.0697e-4
RAAN
88.5809°
Arg perigee
237.2048°
Mean anomaly
122.8280°
Rev number
8,238

§ Raw data

SPHEREX (MIDEX 9)1 63182U 25047E   26265.52156161  .00000657  00000+0  10697-3 0  99992 63182  97.9597  88.5809 0009153 237.2048 122.8280 14.74216715 82382

JSON: /api/v1/satellites/63182 · /tle

For live sub-satellite position, see the globe view (requires WebGL).

§ Visibility from observer

Set your observer location to see the next 7 days of passes ≥ 10°. The values pass through the URL so the page stays shareable.

No JS? Fill the form by hand. The geolocation button needs JavaScript.